Gastonia, NC

2:53 AM EST on February 22, 2017 (GMT -0500)
Gastonia Municipal

Weather History for KAKH - April, 2014

Change the Weather History Date:

Thursday, April 3, 2014

  Actual Average (KCLT) Record (KCLT)
Temperature  
Mean Temperature 70 °F -  
Max Temperature 84 °F 68 °F 90 °F (1946)
Min Temperature 57 °F 45 °F 28 °F (1972)
Cooling Degree Days 6    
Growing Degree Days 20 (Base 50)    
Moisture  
Dew Point 42 °F    
Average Humidity 38    
Maximum Humidity 56    
Minimum Humidity 16    
Precipitation  
Precipitation 0.00 in - - ()
Sea Level Pressure  
Sea Level Pressure 29.98 in    
Wind  
Wind Speed 5 mph (SSW)    
Max Wind Speed 15 mph    
Max Gust Speed 24 mph    
Visibility 10 miles    
Events      
Averages and records for this station are not official NWS values.
T = Trace of Precipitation, MM = Missing Value Source: NWS Daily Summary

Daily Weather History Graph

Daily Weather History Graph

Search for Another Location

Airport or City:

Trip Planner

Search our weather history database for the weather conditions in past years. The results will help you decide how hot, cold, wet, or windy it might be!

Date:

Astronomy

Apr. 03, 2014 Rise Set
Actual Time 7:08 AM EDT 7:47 PM EDT
Civil Twilight 6:42 AM EDT 8:13 PM EDT
Nautical Twilight 6:12 AM EDT 8:43 PM EDT
Astronomical Twilight 5:41 AM EDT 9:14 PM EDT
Moon 9:43 AM EDT (4/3) 11:58 PM EDT (4/3)
Length of Visible Light 13h 30m
Length of Day
12h 39m
Waxing Crescent, 17% of the Moon is Illuminated
Apr 3
Waxing Crescent
Apr 7
First Quarter
Apr 15
Full
Apr 22
Last Quarter
Apr 29
New

Hourly Weather History & Observations

Time (EDT) Temp. Heat Index Dew Point Humidity Pressure Visibility Wind Dir Wind Speed Gust Speed Precip Events Conditions
12:54 AM 63.0 °F - 34.0 °F 34% 30.03 in 10.0 mi SW 4.6 mph - N/A   Clear
1:54 AM 63.0 °F - 33.1 °F 33% 30.02 in 10.0 mi SSW 4.6 mph - N/A   Clear
2:54 AM 57.9 °F - 37.9 °F 47% 30.00 in 10.0 mi SSW 5.8 mph - N/A   Clear
3:54 AM 61.0 °F - 37.0 °F 41% 29.99 in 10.0 mi SW 3.5 mph - N/A   Clear
4:54 AM 59.0 °F - 37.9 °F 46% 29.99 in 10.0 mi Calm Calm - N/A   Clear
5:54 AM 59.0 °F - 41.0 °F 51% 30.00 in 10.0 mi SSW 4.6 mph - N/A   Clear
6:54 AM 61.0 °F - 42.1 °F 50% 30.01 in 10.0 mi Calm Calm - N/A   Clear
7:54 AM 60.1 °F - 44.1 °F 55% 30.04 in 10.0 mi Calm Calm - 0.00 in   Overcast
8:54 AM 63.0 °F - 46.9 °F 56% 30.05 in 10.0 mi Calm Calm - N/A   Mostly Cloudy
9:54 AM 66.0 °F - 44.1 °F 45% 30.07 in 10.0 mi NE 5.8 mph - N/A   Clear
10:54 AM 66.9 °F - 43.0 °F 42% 30.07 in 10.0 mi NNE 5.8 mph - N/A   Clear
11:54 AM 69.1 °F - 45.0 °F 42% 30.05 in 10.0 mi Calm Calm - N/A   Clear
12:54 PM 72.0 °F - 46.0 °F 40% 30.04 in 10.0 mi Variable 3.5 mph - N/A   Clear
1:54 PM 77.0 °F - 51.1 °F 40% 29.98 in 10.0 mi SE 8.1 mph - N/A   Clear
2:54 PM 80.1 °F 80.0 °F 54.0 °F 40% 29.94 in 10.0 mi SE 5.8 mph - N/A   Clear
3:54 PM 84.9 °F - 33.1 °F 16% 29.90 in 10.0 mi SSW 12.7 mph 21.9 mph N/A   Clear
4:54 PM 84.9 °F - 36.0 °F 17% 29.89 in 10.0 mi SSW 15.0 mph 24.2 mph N/A   Clear
5:54 PM 84.0 °F - 42.1 °F 23% 29.88 in 10.0 mi South 10.4 mph 20.7 mph N/A   Clear
6:54 PM 81.0 °F - 44.1 °F 27% 29.89 in 10.0 mi South 13.8 mph 20.7 mph N/A   Overcast
7:54 PM 78.1 °F - 45.0 °F 31% 29.89 in 10.0 mi SSW 10.4 mph 19.6 mph N/A   Mostly Cloudy
8:54 PM 75.9 °F - 45.0 °F 33% 29.90 in 10.0 mi SSW 9.2 mph - N/A   Clear
9:54 PM 75.0 °F - 44.1 °F 33% 29.91 in 10.0 mi SW 10.4 mph - N/A   Clear
11:54 PM 70.0 °F - 43.0 °F 38% 29.91 in 10.0 mi SW 4.6 mph - N/A   Clear